Satellite: E-STAR Catalog number: 38079 Epoch time: 14177.66083427 Element set: 893 Inclination: 069.4534 deg RA of node: 326.6378 deg Eccentricity: 0.0365630 Arg of perigee: 341.0998 deg Mean anomaly: 123.6228 deg Mean motion: 15.10250896 rev/day Decay rate: 3.8521e-04 rev/day^2 Epoch rev: 12489 Checksum: 338
Satellite: GOLIAT Catalog number: 38085 Epoch time: 14177.80036863 Element set: 152 Inclination: 069.4567 deg RA of node: 333.5806 deg Eccentricity: 0.0389070 Arg of perigee: 344.6386 deg Mean anomaly: 014.3217 deg Mean motion: 15.04268478 rev/day Decay rate: 3.5291e-04 rev/day^2 Epoch rev: 12472 Checksum: 318
Satellite: HORYU-2 Catalog number: 38340 Epoch time: 14176.85424386 Element set: 890 Inclination: 098.2620 deg RA of node: 134.1972 deg Eccentricity: 0.0012686 Arg of perigee: 143.4081 deg Mean anomaly: 216.7992 deg Mean motion: 14.72550471 rev/day Decay rate: 4.62e-06 rev/day^2 Epoch rev: 11307 Checksum: 300
Satellite: RS-40 Catalog number: 38735 Epoch time: 14177.30298756 Element set: 605 Inclination: 082.4775 deg RA of node: 281.8559 deg Eccentricity: 0.0016295 Arg of perigee: 232.1950 deg Mean anomaly: 127.7654 deg Mean motion: 12.42560408 rev/day Decay rate: 2.4e-07 rev/day^2 Epoch rev: 8671 Checksum: 320
Satellite: PROITERES Catalog number: 38756 Epoch time: 14177.75658103 Element set: 959 Inclination: 098.2288 deg RA of node: 266.2074 deg Eccentricity: 0.0011978 Arg of perigee: 359.3740 deg Mean anomaly: 000.7451 deg Mean motion: 14.74979516 rev/day Decay rate: 2.08e-06 rev/day^2 Epoch rev: 9659 Checksum: 346
Satellite: BEESAT-3 Catalog number: 39134 Epoch time: 14177.28592868 Element set: 623 Inclination: 064.8736 deg RA of node: 109.7497 deg Eccentricity: 0.0028719 Arg of perigee: 305.5309 deg Mean anomaly: 054.3128 deg Mean motion: 15.05358972 rev/day Decay rate: 2.536e-05 rev/day^2 Epoch rev: 6503 Checksum: 332
Satellite: BEESAT-2 Catalog number: 39136 Epoch time: 14177.35359970 Element set: 608 Inclination: 064.8728 deg RA of node: 110.0382 deg Eccentricity: 0.0028460 Arg of perigee: 305.3190 deg Mean anomaly: 054.5263 deg Mean motion: 15.04738842 rev/day Decay rate: 2.205e-05 rev/day^2 Epoch rev: 6503 Checksum: 289
Satellite: LO-75 Catalog number: 39382 Epoch time: 14177.83243018 Element set: 285 Inclination: 040.4966 deg RA of node: 036.4960 deg Eccentricity: 0.0021406 Arg of perigee: 309.4165 deg Mean anomaly: 050.4605 deg Mean motion: 15.45483814 rev/day Decay rate: 3.1701e-04 rev/day^2 Epoch rev: 3355 Checksum: 298
Satellite: ZACUBE-1 Catalog number: 39417 Epoch time: 14177.37781420 Element set: 333 Inclination: 097.7767 deg RA of node: 247.6840 deg Eccentricity: 0.0061742 Arg of perigee: 212.1546 deg Mean anomaly: 147.5909 deg Mean motion: 14.78120217 rev/day Decay rate: 7.82e-06 rev/day^2 Epoch rev: 3205 Checksum: 306
Satellite: TRITON-1 Catalog number: 39427 Epoch time: 14177.74624151 Element set: 188 Inclination: 097.7644 deg RA of node: 243.6649 deg Eccentricity: 0.0117386 Arg of perigee: 219.7934 deg Mean anomaly: 139.4594 deg Mean motion: 14.65401769 rev/day Decay rate: 4.89e-06 rev/day^2 Epoch rev: 3179 Checksum: 354
Satellite: DELFIN3XT Catalog number: 39428 Epoch time: 14177.75136052 Element set: 189 Inclination: 097.7597 deg RA of node: 242.8790 deg Eccentricity: 0.0127730 Arg of perigee: 221.6457 deg Mean anomaly: 137.4923 deg Mean motion: 14.63311290 rev/day Decay rate: 8.41e-06 rev/day^2 Epoch rev: 3173 Checksum: 314
Satellite: GOMX-1 Catalog number: 39430 Epoch time: 14177.71663734 Element set: 590 Inclination: 097.7564 deg RA of node: 240.7490 deg Eccentricity: 0.0155580 Arg of perigee: 227.5764 deg Mean anomaly: 131.2192 deg Mean motion: 14.56837308 rev/day Decay rate: 4.09e-06 rev/day^2 Epoch rev: 3160 Checksum: 309
Satellite: MO-76 Catalog number: 39436 Epoch time: 14176.96407205 Element set: 249 Inclination: 097.7774 deg RA of node: 250.4410 deg Eccentricity: 0.0025848 Arg of perigee: 214.7308 deg Mean anomaly: 145.1943 deg Mean motion: 14.90243302 rev/day Decay rate: 5.979e-05 rev/day^2 Epoch rev: 3218 Checksum: 322
Satellite: LO-74 Catalog number: 39440 Epoch time: 14177.36991590 Element set: 185 Inclination: 097.7704 deg RA of node: 245.9454 deg Eccentricity: 0.0083515 Arg of perigee: 215.0125 deg Mean anomaly: 144.5545 deg Mean motion: 14.73065194 rev/day Decay rate: 5.96e-06 rev/day^2 Epoch rev: 3193 Checksum: 326
Satellite: PUCPSAT-1 Catalog number: 39442 Epoch time: 14177.79584244 Element set: 183 Inclination: 097.7799 deg RA of node: 250.7617 deg Eccentricity: 0.0033814 Arg of perigee: 212.1188 deg Mean anomaly: 147.7956 deg Mean motion: 14.86108290 rev/day Decay rate: 1.150e-05 rev/day^2 Epoch rev: 3105 Checksum: 319
Satellite: LO-78 Catalog number: 39569 Epoch time: 14177.86832943 Element set: 362 Inclination: 051.6393 deg RA of node: 037.5708 deg Eccentricity: 0.0003063 Arg of perigee: 178.3362 deg Mean anomaly: 296.2197 deg Mean motion: 15.84425384 rev/day Decay rate: 1.68294e-03 rev/day^2 Epoch rev: 1856 Checksum: 357
Satellite: SHINAISAT Catalog number: 39572 Epoch time: 14177.88988530 Element set: 162 Inclination: 065.0123 deg RA of node: 009.2619 deg Eccentricity: 0.0017047 Arg of perigee: 282.8515 deg Mean anomaly: 077.0734 deg Mean motion: 15.70055454 rev/day Decay rate: 2.3541e-04 rev/day^2 Epoch rev: 1863 Checksum: 302
Satellite: OPUSAT Catalog number: 39575 Epoch time: 14177.70326300 Element set: 200 Inclination: 065.0003 deg RA of node: 003.6623 deg Eccentricity: 0.0016613 Arg of perigee: 281.5812 deg Mean anomaly: 078.3276 deg Mean motion: 15.92971195 rev/day Decay rate: 1.75282e-03 rev/day^2 Epoch rev: 1872 Checksum: 281
Satellite: TEIKYOSAT Catalog number: 39576 Epoch time: 14177.89939563 Element set: 166 Inclination: 065.0142 deg RA of node: 007.8024 deg Eccentricity: 0.0016148 Arg of perigee: 295.4786 deg Mean anomaly: 064.4698 deg Mean motion: 15.73882415 rev/day Decay rate: 3.2584e-04 rev/day^2 Epoch rev: 1866 Checksum: 346
Satellite: CO-77 Catalog number: 39577 Epoch time: 14177.91081322 Element set: 176 Inclination: 065.0107 deg RA of node: 005.1978 deg Eccentricity: 0.0016183 Arg of perigee: 291.5711 deg Mean anomaly: 068.3723 deg Mean motion: 15.82548471 rev/day Decay rate: 7.4154e-04 rev/day^2 Epoch rev: 1871 Checksum: 319
Satellite: STARS-II Catalog number: 39579 Epoch time: 14116.06110564 Element set: 132 Inclination: 064.9886 deg RA of node: 219.0071 deg Eccentricity: 0.0013010 Arg of perigee: 293.8065 deg Mean anomaly: 069.6132 deg Mean motion: 16.44611049 rev/day Decay rate: 2.0186783e-01 rev/day^2 Epoch rev: 902 Checksum: 288
Satellite: SPROUT Catalog number: 39770 Epoch time: 14177.04262583 Element set: 45 Inclination: 097.8716 deg RA of node: 274.0593 deg Eccentricity: 0.0008362 Arg of perigee: 287.0044 deg Mean anomaly: 073.0261 deg Mean motion: 14.82610162 rev/day Decay rate: 5.23e-06 rev/day^2 Epoch rev: 485 Checksum: 283
Satellite: QB50p2 Catalog number: 40032 Epoch time: 14177.71869647 Element set: 11 Inclination: 097.9829 deg RA of node: 072.3569 deg Eccentricity: 0.0010993 Arg of perigee: 259.7598 deg Mean anomaly: 100.2352 deg Mean motion: 14.84805510 rev/day Decay rate: 1.76e-06 rev/day^2 Epoch rev: 100 Checksum: 302
/EX